Weather Service Report


095 
ASUS43 KDMX 211606
RWRIA 

WEATHER ROUNDUP FOR IOWA
NATIONAL WEATHER SERVICE DES MOINES IA
1000 AM CST TUE FEB 21 2017

NOTE: "FAIR" INDICATES FEW OR NO CLOUDS BELOW 12,000 FEET WITH NO
SIGNIFICANT WEATHER AND/OR OBSTRUCTIONS TO VISIBILITY.

* - THESE STATIONS ARE NOT NWS STATIONS...THUS NOT UNDER NWS
QUALITY CONTROL.  THEY ALSO DO NOT REPORT WEATHER SUCH 
AS PRECIPITATION OR FOG.  

IAZ001>003-012>014-020>022-031>034-043>046-211700-
   NORTHWEST IOWA
  
CITY           SKY/WX    TMP DP  RH WIND       PRES   REMARKS
CARROLL *      SUNNY     50  46  87 SW12      29.96F                  
CHEROKEE *     SUNNY     48  43  84 SW10      29.92F                  
DENISON *      SUNNY     46  45  93 SW5       29.95S                  
LE MARS *      SUNNY     46  41  81 S13       29.91F                  
SHELDON *      SUNNY     48  43  81 S17G25    29.86F                  
SIOUX CITY     SUNNY     54  42  64 SW12      29.92F                  
SPENCER        SUNNY     47  40  76 SW14      29.90F                  
STORM LAKE *   SUNNY     48  41  76 SW14      29.93S                  
$$
 
IAZ055>058-069>071-079>083-090>094-211700-
   SOUTHWEST IOWA
  
CITY           SKY/WX    TMP DP  RH WIND       PRES   REMARKS
ATLANTIC *     SUNNY     45  45 100 SW6       29.99F                  
CLARINDA *     SUNNY     46  46 100 CALM      30.03F                  
COUNCIL BLFS * SUNNY     48  46  93 SW8       29.99S                  
CRESTON *      SUNNY     48  46  93 W8        30.01S                  
HARLAN  *      PTSUNNY   41  41 100 CALM      30.02S FOG              
LAMONI         SUNNY     54  45  71 SE5       29.98F                  
RED OAK *      SUNNY     46  45  93 S7        30.01F                  
SHENANDOAH *   SUNNY     46  45  93 SW3       30.03S                  
$$
 
IAZ047>049-059>061-072>074-084-211700-
   CENTRAL IOWA
  
CITY           SKY/WX    TMP DP  RH WIND       PRES   REMARKS
AMES           SUNNY     47  46  97 W9        29.98S                  
ANKENY *       SUNNY     50  45  81 W5        29.99S                  
BOONE *        SUNNY     46  46 100 SW8       29.96F                  
CHARITON *     SUNNY     52  45  76 SE5       29.98F                  
DES MOINES     MOSUNNY   52  45  77 W6        29.99R                  
GRINNELL*      SUNNY     48  47  97 CALM      29.98S                  
KNOXVILLE *    SUNNY     50  45  81 CALM      29.97S                  
MARSHALLTOWN   PTSUNNY   42  42 100 W7        29.97R FOG              
NEWTON *       MOSUNNY   46  46 100 CALM      29.97S                  
PELLA *        SUNNY     48  48  98 CALM      29.99F                  
PERRY *          N/A     49  46  90 SW7       29.98F                  
$$
 
IAZ004>006-015-016-023>025-035-036-211700-
   NORTH CENTRAL IOWA
  
CITY           SKY/WX    TMP DP  RH WIND       PRES   REMARKS
ALGONA *       SUNNY     45  43  93 S12       29.93S                  
CLARION *      SUNNY     41  41 100 SW7       29.96R                  
ESTHERVILLE    SUNNY     48  41  76 SW16      29.88F                  
FORT DODGE *   SUNNY     46  43  87 SW6       29.96R                  
MASON CITY     SUNNY     45  41  86 S7        29.95S                  
FOREST CITY *    N/A     45  45 100 SW6       29.94S                  
IOWA FALLS *   FOG       42  41  97 SW7       29.98S VSB 3/4          
$$

IAZ007>011-017>019-026>030-037>042-050>054-066-211700-
   NORTHEAST IOWA
  
CITY           SKY/WX    TMP DP  RH WIND       PRES   REMARKS
CEDAR RAPIDS   SUNNY     46  45  96 CALM      29.96F                  
CHARLES CITY * FOG       39  39 100 SW6       29.96R VSB<1/4 WCI  35  
CLINTON *      MOSUNNY   49  47  93 NW7       29.97S                  
DECORAH *      FOG       37  37 100 CALM      29.94R VSB<1/4          
DUBUQUE        SUNNY     49  41  74 NE3       29.95S                  
MONTICELLO *   SUNNY     48  43  81 CALM      29.96F                  
OELWEIN *      FOG       39  39 100 CALM      29.97R VSB<1/4          
WATERLOO       SUNNY     46  42  86 SW5       29.96S                  
$$
 
IAZ064-065-067-068-078-211700-
   EAST CENTRAL IOWA
  
CITY           SKY/WX    TMP DP  RH WIND       PRES   REMARKS
DAVENPORT      MOSUNNY   51  47  86 N5        29.97R                  
IOWA CITY      SUNNY     53  44  71 NE3       29.99F                  
MUSCATINE *    SUNNY     52  45  76 CALM      29.99S                  
QUAD CITIES    CLOUDY    56  45  66 NW3       29.97R                  
$$
 
IAZ062-063-075>077-085>089-095>099-211700-
   SOUTHEAST IOWA
  
CITY           SKY/WX    TMP DP  RH WIND       PRES   REMARKS
BURLINGTON     MOSUNNY   55  47  74 NE7       29.97R                  
FAIRFIELD *    SUNNY     52  45  76 CALM      29.99S                  
KEOKUK *       CLOUDY    52  48  87 N8        29.98R                  
OTTUMWA        SUNNY     52  45  77 E3        29.99S                  
WASHINGTON *   SUNNY     52  46  82 E3        29.99F                  
$$

ABBREVIATIONS USED IN REMARKS
   TC - TEMPERATURES IN CELSIUS
  WCI - WIND CHILL INDEX
   HX - HEAT INDEX
  VSB - VISIBILITY  
$$

  

Return to Home page


Western Regional Climate Center, wrcc@dri.edu